AFR652 LFPG-FMEE

Flight info

Callsign AFR652
Flight time N/A
Altitude 31000
Route LANVI DCT DEVDI DCT RIPUS DCT RESIA DCT LAPAB/N0489F330 DCT LABIN DCT ELGUS DCT AIOSA DCT NOSTO DCT SALUN N705 BOPIX N710 TAKRI P751 LXR M999 SEDVA/N0488F350 M999 JDW G650 RASKA/N0500F340 G650 ULONI UG650 KONET/N0498F350 DCT XADOX DCT DWA UN304 APKAK/N0496F360 UN304 DENLI/N0492F370 UN304 UVENA UVENA2R
Aircraft B77W/H-SDE1E2E3FGHIJ2J3J4J5M1RWXY/LB1D1

Departure

Time 2026-05-08 13:44
Airport Charles de Gaulle International Airport (LFPG)

Arrival

Time N/A
Airport Roland Garros Airport (FMEE)
Time Latitude Longitude Altitude Speed Heading
2026-05-08 12:41 49.00266 2.59013 366 ft 0 kts 84°
2026-05-08 13:26 49.00266 2.59012 359 ft 1 kts 84°
2026-05-08 13:27 49.00263 2.58975 361 ft 4 kts 84°
2026-05-08 13:27 49.00261 2.58939 368 ft 2 kts 85°
2026-05-08 13:27 49.00262 2.58901 365 ft 4 kts 115°
2026-05-08 13:27 49.00278 2.58874 365 ft 4 kts 163°
2026-05-08 13:28 49.00305 2.58868 364 ft 4 kts 178°
2026-05-08 13:28 49.00317 2.58868 362 ft 0 kts 174°
2026-05-08 13:34 49.00269 2.58874 368 ft 12 kts 174°
2026-05-08 13:35 49.00190 2.58887 361 ft 11 kts 172°
2026-05-08 13:35 49.00113 2.58899 361 ft 12 kts 178°
2026-05-08 13:35 49.00046 2.58831 365 ft 12 kts 246°
2026-05-08 13:35 49.00030 2.58706 366 ft 13 kts 264°
2026-05-08 13:36 49.00020 2.58520 361 ft 22 kts 265°
2026-05-08 13:36 49.00008 2.58267 363 ft 24 kts 265°
2026-05-08 13:36 48.99996 2.58027 359 ft 22 kts 266°
2026-05-08 13:36 48.99983 2.57809 364 ft 20 kts 265°
2026-05-08 13:37 48.99971 2.57608 361 ft 19 kts 265°
2026-05-08 13:37 48.99961 2.57407 365 ft 19 kts 266°
2026-05-08 13:37 48.99951 2.57201 364 ft 19 kts 265°
2026-05-08 13:37 48.99941 2.56996 361 ft 19 kts 265°
2026-05-08 13:38 48.99927 2.56790 364 ft 20 kts 265°
2026-05-08 13:38 48.99916 2.56580 365 ft 20 kts 266°
2026-05-08 13:38 48.99906 2.56366 359 ft 20 kts 266°
2026-05-08 13:38 48.99897 2.56150 359 ft 21 kts 266°
2026-05-08 13:39 48.99895 2.55935 359 ft 20 kts 277°
2026-05-08 13:39 48.99863 2.55817 363 ft 8 kts 199°
2026-05-08 13:39 48.99820 2.55804 365 ft 6 kts 186°
2026-05-08 13:39 48.99784 2.55804 365 ft 5 kts 177°
2026-05-08 13:40 48.99770 2.55805 364 ft 0 kts 175°
2026-05-08 13:41 48.99750 2.55808 361 ft 10 kts 175°
2026-05-08 13:42 48.99669 2.55818 367 ft 12 kts 173°
2026-05-08 13:42 48.99615 2.55872 365 ft 8 kts 116°
2026-05-08 13:42 48.99609 2.55933 358 ft 0 kts 89°
2026-05-08 13:43 48.99609 2.55941 358 ft 6 kts 87°
2026-05-08 13:43 48.99625 2.56301 367 ft 71 kts 86°
2026-05-08 13:43 48.99686 2.57466 358 ft 148 kts 84°
2026-05-08 13:44 48.99781 2.59349 436 ft 199 kts 85°
2026-05-08 13:44 48.99889 2.61531 1028 ft 215 kts 84°
2026-05-08 13:44 49.00017 2.63859 2235 ft 222 kts 85°
2026-05-08 13:44 49.00158 2.66249 3133 ft 233 kts 84°
2026-05-08 13:45 49.00331 2.68756 3659 ft 239 kts 84°
2026-05-08 13:45 49.00480 2.71296 4162 ft 252 kts 86°
2026-05-08 13:45 49.00600 2.74042 4613 ft 264 kts 87°
2026-05-08 13:45 49.00706 2.76858 5287 ft 268 kts 87°
2026-05-08 13:46 49.00656 2.79690 5986 ft 269 kts 98°
2026-05-08 13:46 49.00355 2.82522 6640 ft 271 kts 100°
2026-05-08 13:46 49.00014 2.85384 7206 ft 278 kts 100°
2026-05-08 13:46 48.99677 2.88300 7893 ft 280 kts 100°
2026-05-08 13:47 48.99322 2.91240 8498 ft 285 kts 102°
2026-05-08 13:47 48.98958 2.94257 9015 ft 294 kts 100°
2026-05-08 13:47 48.98645 2.97312 9789 ft 293 kts 99°
2026-05-08 13:47 48.98388 3.00411 10401 ft 297 kts 97°
2026-05-08 13:48 48.98138 3.03576 10840 ft 307 kts 99°
2026-05-08 13:48 48.97843 3.06908 11019 ft 329 kts 98°
2026-05-08 13:48 48.97566 3.10480 11202 ft 350 kts 98°
2026-05-08 13:48 48.97272 3.14268 11406 ft 370 kts 98°
2026-05-08 13:49 48.96955 3.18223 11899 ft 381 kts 98°
2026-05-08 13:49 48.96622 3.22275 12522 ft 389 kts 98°
2026-05-08 13:49 48.96278 3.26380 13248 ft 393 kts 99°
2026-05-08 13:49 48.95925 3.30527 13981 ft 397 kts 99°
2026-05-08 13:50 48.95570 3.34660 14632 ft 401 kts 99°
2026-05-08 13:50 48.95204 3.38889 15289 ft 405 kts 99°
2026-05-08 13:50 48.94834 3.43167 15952 ft 410 kts 99°
2026-05-08 13:50 48.94459 3.47477 16596 ft 414 kts 99°
2026-05-08 13:51 48.94077 3.51845 17229 ft 418 kts 99°
2026-05-08 13:51 48.93701 3.56247 17867 ft 423 kts 98°
2026-05-08 13:51 48.93417 3.60722 18487 ft 428 kts 96°
2026-05-08 13:51 48.93189 3.65256 19040 ft 432 kts 95°
2026-05-08 13:52 48.92974 3.69836 19618 ft 435 kts 95°
2026-05-08 13:52 48.92753 3.74436 20199 ft 438 kts 95°
2026-05-08 13:52 48.92519 3.79070 20749 ft 442 kts 96°
2026-05-08 13:52 48.92274 3.83736 21299 ft 445 kts 96°
2026-05-08 13:53 48.92019 3.88445 21832 ft 449 kts 96°
2026-05-08 13:53 48.91757 3.93200 22369 ft 452 kts 96°
2026-05-08 13:53 48.91492 3.97978 22888 ft 455 kts 96°
2026-05-08 13:53 48.91232 4.02620 23396 ft 459 kts 96°
2026-05-08 13:54 48.90959 4.07475 23852 ft 462 kts 96°
2026-05-08 13:54 48.90684 4.12365 24251 ft 466 kts 96°
2026-05-08 13:54 48.90403 4.17294 24636 ft 470 kts 96°
2026-05-08 13:54 48.90021 4.22179 24947 ft 472 kts 103°
2026-05-08 13:55 48.88861 4.26904 25217 ft 471 kts 121°
2026-05-08 13:55 48.87212 4.31216 25517 ft 475 kts 122°
2026-05-08 13:55 48.83848 4.39943 26387 ft 478 kts 122°
2026-05-08 13:56 48.82218 4.44262 26872 ft 479 kts 121°
2026-05-08 13:56 48.80570 4.48682 27146 ft 484 kts 121°
2026-05-08 13:56 48.78913 4.53160 27421 ft 489 kts 121°
2026-05-08 13:56 48.77248 4.57679 27763 ft 492 kts 121°
2026-05-08 13:57 48.75574 4.62223 28118 ft 495 kts 121°
2026-05-08 13:57 48.73892 4.66783 28447 ft 497 kts 121°
2026-05-08 13:57 48.72194 4.71375 28761 ft 500 kts 121°
2026-05-08 13:57 48.70484 4.75988 29040 ft 503 kts 121°
2026-05-08 13:58 48.68764 4.80616 29380 ft 504 kts 121°
2026-05-08 13:58 48.67050 4.85221 29898 ft 501 kts 121°
2026-05-08 13:58 48.65337 4.89813 30227 ft 501 kts 121°
2026-05-08 13:58 48.63616 4.94417 30494 ft 503 kts 121°
2026-05-08 13:59 48.61893 4.99019 30740 ft 504 kts 121°
2026-05-08 13:59 48.60213 5.03498 30963 ft 505 kts 121°
2026-05-08 13:59 48.58474 5.08124 31003 ft 508 kts 121°
2026-05-08 14:00 48.54989 5.17378 31032 ft 504 kts 121°
2026-05-08 14:00 48.51510 5.26582 31250 ft 507 kts 121°
2026-05-08 14:00 48.49758 5.31206 31553 ft 507 kts 121°
2026-05-08 14:01 48.48011 5.35809 31903 ft 505 kts 121°
2026-05-08 14:01 48.44521 5.44977 32040 ft 509 kts 121°
2026-05-08 14:02 48.41007 5.54181 32127 ft 504 kts 122°
2026-05-08 14:02 48.37509 5.63307 32134 ft 503 kts 122°
2026-05-08 14:03 48.34010 5.72412 32137 ft 502 kts 122°